Simultaneous Nadir Overpasses (SNOs) Predictions

Prediction of SNOs between AQUA and METOP-B Satellite Orbit:

Table of predicted SNOs for the next 14.0 days since TLE Epoch: 12/5/2015
Index Date (AQUA) Time (AQUA) Lat,Lon (AQUA) SZA (AQUA ) Date (METOP-B) Time (METOP-B) Lat,Lon (METOP-B) SZA (METOP-B ) Distance(km) Time Diff (sec)
1 12/07/2015 04:41:50 -73.73, -76.07 83.77 12/07/2015 04:40:49 -73.73, -76.12 83.77 1.48 61
2 12/07/2015 05:31:19 73.82, 91.38 96.32 12/07/2015 05:31:27 73.80, 91.39 96.31 1.71 8
3 12/07/2015 06:20:52 -74.19,-101.83 83.29 12/07/2015 06:22:01 -74.20,-100.32 83.31 45.77 69
4 12/10/2015 00:16:06 -73.76, -9.71 83.44 12/10/2015 00:15:08 -73.74, -9.68 83.46 3.14 58
5 12/10/2015 01:05:34 73.80, 157.85 96.61 12/10/2015 01:05:46 73.81, 157.82 96.61 1.05 12
6 12/10/2015 01:55:10 -74.33, -35.71 82.85 12/10/2015 01:56:18 -74.30, -33.64 82.91 62.41 68
7 12/12/2015 19:50:21 -73.76, 56.74 83.20 12/12/2015 19:49:27 -73.74, 56.74 83.22 2.29 54
8 12/12/2015 20:39:49 73.81,-135.72 96.85 12/12/2015 20:40:05 73.81,-135.77 96.85 1.40 16
9 12/12/2015 21:29:28 -74.48, 30.36 82.44 12/12/2015 21:30:34 -74.46, 33.17 82.52 83.55 66
10 12/15/2015 15:24:34 -73.73, 123.25 83.06 12/15/2015 15:23:45 -73.74, 123.16 83.03 3.47 49
11 12/15/2015 16:14:03 73.83, -69.33 97.05 12/15/2015 16:14:23 73.81, -69.36 97.03 2.58 20
12 12/18/2015 10:58:49 -73.76,-170.38 82.90 12/18/2015 10:58:04 -73.74,-170.43 82.92 2.77 45
13 12/18/2015 11:48:17 73.82, -2.86 97.16 12/18/2015 11:48:42 73.80, -2.95 97.15 3.43 25




NCC Satellite Simultaneous Nadir Overpasses (SNOs) Prediction Service
